Regional Weather Roundup
Issued by NWS

Home | Current Version | Previous Version | Graphics & Text | Print | Product List | Glossary On
Versions: 1 2 3 4 5 6 7 8 9 10 11 12 13 14 15 16 17 18 19 20 21 22 23 24 25 26 27 28 29 30 31 32 33 34 35 36 37 38 39 40 41 42 43 44 45 46 47 48 49 50
000
ASUS43 KOAX 240602
RWRNE

WEATHER ROUNDUP FOR NEBRASKA
NATIONAL WEATHER SERVICE OMAHA NE
100 AM CDT MON JUL 24 2017

NOTES: SATELLITE DATA IS BEING USED TO AUGMENT CLOUD COVER ABOVE
       12000 FEET.
       "FAIR" INDICATES FEW OR NO CLOUDS BELOW 12,000 FEET WITH NO
       SIGNIFICANT WEATHER AND/OR OBSTRUCTIONS TO VISIBILITY.


NEZ001>004-019>022-054>056-240700-
NEBRASKA PANHANDLE

CITY           SKY/WX    TMP DP  RH WIND       PRES   REMARKS
SCOTTSBLUFF    CLEAR     80  49  33 S9        30.00S
6HR MIN TEMP:  73; 6HR MAX TEMP:  93;

ALLIANCE       CLEAR     65  48  54 S9        30.01S
6HR MIN TEMP:  64; 6HR MAX TEMP:  95;

CHADRON        CLEAR     76  51  41 S7        29.93F
6HR MIN TEMP:  76; 6HR MAX TEMP:  95;

GORDON         FAIR      73  55  53 SE10      30.00S
6HR MIN TEMP:  67; 6HR MAX TEMP:  90;

KIMBALL        CLEAR     73  51  45 S16G23    30.11S
SIDNEY         CLEAR     72  51  47 S12       30.09S
6HR MIN TEMP:  72; 6HR MAX TEMP:  94;

$$

NEZ057>060-069>072-079>082-240700-
SOUTHWEST NEBRASKA

CITY           SKY/WX    TMP DP  RH WIND       PRES   REMARKS
NORTH PLATTE   CLEAR     67  64  90 SE5       30.03S
6HR MIN TEMP:  67; 6HR MAX TEMP:  89;

IMPERIAL       PTCLDY    69  55  60 SE6       30.05S
6HR MIN TEMP:  69; 6HR MAX TEMP:  95;

LEXINGTON      CLEAR     71  66  84 SE7       30.04S
MCCOOK         PTCLDY    73  64  73 SE9       30.03S
6HR MIN TEMP:  71; 6HR MAX TEMP:  94;

OGALLALA       MOCLDY    74  56  53 S9        30.04S
$$

NEZ005>010-023>029-035>040-094-240700-
NORTH CENTRAL NEBRASKA

CITY           SKY/WX    TMP DP  RH WIND       PRES   REMARKS
VALENTINE      CLOUDY    71  55  56 E9        30.02R
6HR MIN TEMP:  71; 6HR MAX TEMP:  93;

AINSWORTH      CLEAR     68  59  73 SE9       30.03S
BROKEN BOW     CLEAR     67  62  84 SE5       30.04S
6HR MIN TEMP:  67; 6HR MAX TEMP:  87;

O`NEILL        CLEAR     67  60  79 SE3       30.04S
ORD            CLEAR     66  61  84 CALM      30.03R
6HR MIN TEMP:  64; 6HR MAX TEMP:  87;

THEDFORD       PTCLDY    72  58  62 SE7       30.05R
$$

NEZ041-046>049-061>064-073>077-083>087-240700-
SOUTH CENTRAL NEBRASKA

CITY           SKY/WX    TMP DP  RH WIND       PRES   REMARKS
GRAND ISLAND   CLEAR     69  65  86 SE5       30.04S
6HR MIN TEMP:  69; 6HR MAX TEMP:  86;

AURORA         CLEAR     67  64  91 E5        30.03S
HASTINGS       CLEAR     73  60  63 E8        30.04S
6HR MIN TEMP:  73; 6HR MAX TEMP:  84;

HEBRON         CLEAR     69  65  89 CALM      30.00F
HOLDREGE       CLEAR     69  65  86 SE8       30.04R
KEARNEY        CLEAR     69  65  86 E8        30.04S
YORK           CLEAR     66  63  88 E5        30.03S
$$

NEZ011>018-030>034-042>045-240700-
NORTHEAST NEBRASKA

CITY           SKY/WX    TMP DP  RH WIND       PRES   REMARKS
NORFOLK        CLEAR     65  58  78 SE6       30.02S
6HR MIN TEMP:  65; 6HR MAX TEMP:  84;

ALBION         CLEAR     64  59  85 E6        30.04R
BLAIR          CLEAR     67  61  81 E7        30.03S
COLUMBUS       CLEAR     62  59  90 E3        30.03R
FREMONT        CLEAR     69  61  76 E7        30.03R
TEKAMAH        CLEAR     62  58  86 CALM      30.02R
6HR MIN TEMP:  62; 6HR MAX TEMP:  84;

WAYNE          CLEAR     62  62  99 CALM      30.03S
$$

NEZ050>053-065>068-078-088>093-240700-
SOUTHEAST NEBRASKA

CITY           SKY/WX    TMP DP  RH WIND       PRES   REMARKS
LINCOLN        CLEAR     66  62  87 N6        30.01F
6HR MIN TEMP:  65; 6HR MAX TEMP:  84;

OMAHA EPPLEY   CLEAR     71  61  70 CALM      30.01S
6HR MIN TEMP:  71; 6HR MAX TEMP:  86;

BEATRICE       CLEAR     69  63  80 E3        30.00F
FALLS CITY     CLEAR     71  63  75 E3        29.98S
6HR MIN TEMP:  70; 6HR MAX TEMP:  87;

NEBRASKA CITY  CLEAR     68  66  94 N5        30.01S
PLATTSMOUTH    CLEAR     68  62  79 NE6       30.01S
$$

NEZ044-045-051>053-067-240700-
OMAHA AREA

CITY           SKY/WX    TMP DP  RH WIND       PRES   REMARKS
OMAHA EPPLEY   CLEAR     71  61  70 CALM      30.01S
6HR MIN TEMP:  71; 6HR MAX TEMP:  86;

BLAIR          CLEAR     67  61  81 E7        30.03S
FREMONT        CLEAR     69  61  76 E7        30.03R
MILLARD        CLEAR     74  62  66 E5        30.02R
OFFUTT AFB     CLEAR     68  61  77 NE7       30.01R
PLATTSMOUTH    CLEAR     68  62  79 NE6       30.01S
WAHOO          FAIR      64  61  91 NE3       30.02S
$$




USA.gov is the U.S. government's official web portal to all federal, state and local government web resources and services.